Overview Statistics Trail Chart Weather Telemetry Raw packets
 

This is the latest recevied weather packets stored in our database for station/object KI5RAB. If no packets are shown the sender has not sent any weather packets the latest 10 day(s).

<< 15 16 17 18 19 20 21 >>
Time Temp. Humidity Pressure Rain* Wind** Luminosity Snow
1788559456 31.11° C 66% 1015.5 hPa 0 mm - 165 W/m² -
1788559152 31.11° C 65% 1015.5 hPa 0 mm - 155 W/m² -
1788558847 31.11° C 66% 1015.6 hPa 0 mm - 153 W/m² -
1788558543 31.11° C 67% 1015.7 hPa 0 mm - 153 W/m² -
1788558238 31.11° C 69% 1015.7 hPa 0 mm - 152 W/m² -
1788557936 31.11° C 68% 1015.9 hPa 0 mm - 169 W/m² -
1788557631 31.11° C 66% 1015.9 hPa 0 mm - 182 W/m² -
1788557327 31.11° C 67% 1016 hPa 0 mm - 181 W/m² -
1788557021 30.56° C 66% 1016.2 hPa 0 mm - 174 W/m² -
1788556717 30.56° C 67% 1016.1 hPa 0 mm - 177 W/m² -
1788556411 30.56° C 68% 1016.2 hPa 0 mm - 187 W/m² -
1788556106 30.56° C 70% 1016.1 hPa 0 mm - 196 W/m² -
1788555806 31.11° C 73% 1016.2 hPa 0 mm - 214 W/m² -
1788555502 30.56° C 74% 1016.4 hPa 0 mm - 297 W/m² -
1788555198 30.56° C 77% 1016.2 hPa 0 mm - 236 W/m² -
1788554895 30° C 75% 1016.4 hPa 0 mm - 196 W/m² -
1788554590 30° C 76% 1016.5 hPa 0 mm - 162 W/m² -
1788554286 30° C 75% 1016.4 hPa 0 mm - 135 W/m² -
1788553982 30° C 75% 1016.6 hPa 0 mm - 121 W/m² -
1788553678 30° C 75% 1016.7 hPa 0 mm - 115 W/m² -
1788553374 30.56° C 73% 1016.7 hPa 0 mm - 113 W/m² -
1788553069 30.56° C 72% 1016.5 hPa 0 mm - 119 W/m² -
1788552764 30.56° C 71% 1016.6 hPa 0 mm - 135 W/m² -
1788552458 30.56° C 71% 1016.5 hPa 0 mm - 151 W/m² -
1788552153 30.56° C 71% 1016.5 hPa 0 mm - 173 W/m² -

* Rain latest hour (hover to see other rain measurements)
** Current wind speed in m/s (hover to see current wind gust speed)